Regional Weather Roundup
Issued by NWS

Home | Current Version | Previous Version | Graphics & Text | Print | Product List | Glossary On
Versions: 1 2 3 4 5 6 7 8 9 10 11 12 13 14 15 16 17 18 19 20 21 22 23 24 25 26 27 28 29 30 31 32 33 34 35 36 37 38 39 40 41 42 43 44 45 46 47 48 49 50
000
ASUS43 KOAX 170610
RWRNE

WEATHER ROUNDUP FOR NEBRASKA
NATIONAL WEATHER SERVICE OMAHA NE
1200 AM CST WED JAN 17 2018

NOTES: SATELLITE DATA IS BEING USED TO AUGMENT CLOUD COVER ABOVE
       12000 FEET.
       "FAIR" INDICATES FEW OR NO CLOUDS BELOW 12,000 FEET WITH NO
       SIGNIFICANT WEATHER AND/OR OBSTRUCTIONS TO VISIBILITY.


NEZ001>004-019>022-054>056-170700-
NEBRASKA PANHANDLE

CITY           SKY/WX    TMP DP  RH WIND       PRES   REMARKS
SCOTTSBLUFF    CLEAR     10   2  69 CALM      30.25S
6HR MIN TEMP:   6; 6HR MAX TEMP:  13;

ALLIANCE       CLEAR      5   0  79 S8        30.25F WCI  -8
6HR MIN TEMP:   5; 6HR MAX TEMP:  11;

CHADRON        CLEAR      7   3  84 CALM      30.24F
6HR MIN TEMP:   6; 6HR MAX TEMP:  21;

GORDON         FAIR      17   4  56 SW12G17   30.24F WCI   4
6HR MIN TEMP:  14; 6HR MAX TEMP:  18;

KIMBALL        CLEAR     11   5  78 SW3       30.24S
SIDNEY         CLEAR      8   1  73 SW10      30.26F WCI  -6
6HR MIN TEMP:   8; 6HR MAX TEMP:  16;

$$

NEZ057>060-069>072-079>082-170700-
SOUTHWEST NEBRASKA

CITY           SKY/WX    TMP DP  RH WIND       PRES   REMARKS
NORTH PLATTE   CLEAR      9  -1  64 S6        30.41F WCI  -1
6HR MIN TEMP:   9; 6HR MAX TEMP:  14;

IMPERIAL       CLEAR      5  -2  72 SE7       30.35F WCI  -7
6HR MIN TEMP:   4; 6HR MAX TEMP:  14;

LEXINGTON      CLEAR     10   2  69 S8        30.48S WCI  -1
MCCOOK         CLEAR      6  -1  73 S7        30.46F WCI  -6
6HR MIN TEMP:   5; 6HR MAX TEMP:  13;

OGALLALA       CLEAR     13   2  63 SW6       30.35F WCI   3
$$

NEZ005>010-023>029-035>040-094-170700-
NORTH CENTRAL NEBRASKA

CITY           SKY/WX    TMP DP  RH WIND       PRES   REMARKS
VALENTINE      CLEAR     11   2  67 SW7       30.32F WCI   0
6HR MIN TEMP:   9; 6HR MAX TEMP:  14;

AINSWORTH      CLEAR     10   1  65 SW15      30.33F WCI  -6
BROKEN BOW     CLEAR      2  -5  72 S5        30.44F WCI  -8
6HR MIN TEMP:   0; 6HR MAX TEMP:   8;

O`NEILL        CLEAR      8   1  72 S10       30.42F WCI  -6
ORD            CLEAR      6   0  76 S9        30.46F WCI  -8
6HR MIN TEMP:   2; 6HR MAX TEMP:   8;

THEDFORD       PTCLDY    12   1  63 SW8       30.37R WCI   0
$$

NEZ041-046>049-061>064-073>077-083>087-170700-
SOUTH CENTRAL NEBRASKA

CITY           SKY/WX    TMP DP  RH WIND       PRES   REMARKS
GRAND ISLAND   CLOUDY     7   1  76 S10       30.53F WCI  -8
6HR MIN TEMP:   2; 6HR MAX TEMP:   8;

AURORA         CLOUDY     4  -2  77 SW9       30.54F WCI -10
HASTINGS       CLOUDY     4  -2  76 S6        30.54F WCI  -7
6HR MIN TEMP:   3; 6HR MAX TEMP:   9;

HEBRON         CLOUDY    -5  -9  82 CALM      30.61F
HOLDREGE       CLOUDY     7   1  76 S9        30.50F WCI  -6
KEARNEY        CLOUDY     1  -4  79 SW9       30.52F WCI -14
YORK           CLOUDY     1   0  92 SW6       30.56F WCI -10
$$

NEZ011>018-030>034-042>045-170700-
NORTHEAST NEBRASKA

CITY           SKY/WX    TMP DP  RH WIND       PRES   REMARKS
NORFOLK        CLOUDY     5   0  79 S10       30.52F WCI -10
6HR MIN TEMP:  -1; 6HR MAX TEMP:   7;

ALBION         CLOUDY     5  -1  76 S3        30.51F
BLAIR          CLOUDY     2  -1  85 S5        30.59F WCI  -7
COLUMBUS       CLOUDY     5   0  79 SW7       30.58F WCI  -7
FREMONT        CLEAR      4   1  83 CALM      30.60F
TEKAMAH        CLOUDY    -3  -8  79 S7        30.62F WCI -16
6HR MIN TEMP:  -5; 6HR MAX TEMP:   6;

WAYNE          CLOUDY     1  -3  83 S6        30.53F WCI -10
$$

NEZ050>053-065>068-078-088>093-170700-
SOUTHEAST NEBRASKA

CITY           SKY/WX    TMP DP  RH WIND       PRES   REMARKS
LINCOLN        CLOUDY     3  -2  79 CALM      30.63F
6HR MIN TEMP:   2; 6HR MAX TEMP:  13;

OMAHA EPPLEY   CLOUDY     1  -2  87 SE8       30.64F WCI -13
6HR MIN TEMP:   1; 6HR MAX TEMP:   9;

BEATRICE       CLOUDY     2  -1  85 CALM      30.62F
FALLS CITY     CLOUDY    -3  -7  82 CALM      30.67F
6HR MIN TEMP:  -3; 6HR MAX TEMP:   6;

NEBRASKA CITY  CLOUDY     2   0  91 SW6       30.63F WCI  -9
PLATTSMOUTH    CLOUDY     4   1  86 SW7       30.63S WCI  -8
$$

NEZ044-045-051>053-067-170700-
OMAHA AREA

CITY           SKY/WX    TMP DP  RH WIND       PRES   REMARKS
OMAHA EPPLEY   CLOUDY     1  -2  87 SE8       30.64F WCI -13
6HR MIN TEMP:   1; 6HR MAX TEMP:   9;

BLAIR          CLOUDY     2  -1  85 S5        30.59F WCI  -7
FREMONT        CLEAR      4   1  83 CALM      30.60F
MILLARD        CLOUDY     4   1  83 CALM      30.64S
OFFUTT AFB     CLOUDY    -5 -10  81 CALM      30.63F
PLATTSMOUTH    CLOUDY     4   1  86 SW7       30.63S WCI  -8
WAHOO          FAIR       1  -4  80 CALM      30.61F
$$



USA.gov is the U.S. government's official web portal to all federal, state and local government web resources and services.